Regional Weather Roundup
Issued by NWS

Home | Current Version | Previous Version | Graphics & Text | Print | Product List | Glossary On
Versions: 1 2 3 4 5 6 7 8 9 10 11 12 13 14 15 16 17 18 19 20 21 22 23 24 25 26 27 28 29 30 31 32 33 34 35 36 37 38 39 40 41 42 43 44 45 46 47 48 49 50
000
ASUS45 KABQ 061201
RWRNM
NEW MEXICO REGIONAL WEATHER ROUNDUP
NATIONAL WEATHER SERVICE ALBUQUERQUE NM
600 AM MDT MON JUL 06 2015

NOTE: "FAIR" MEANS FEW OR NO CLOUDS BELOW 12,000 FEET AGL WITH NO
       SIGNIFICANT WEATHER OR OBSTRUCTIONS TO VISION.

      THIS PRODUCT IS RELEASED AS TWO VERSIONS.  ONE VERSION NEAR
      THE TOP OF THE HOUR CONTAINING PRELIMINARY DATA FROM ALBUQUERQUE
      AND OTHER STATIONS.  A FINAL VERSION WITH ADDITIONAL DATA IS
      ISSUED ABOUT 10 MINUTES AFTER THE HOUR.

NMZ501-503-504-510>518-061300-
NORTHWEST PLATEAU/NORTHCENTRAL MOUNTAINS

CITY           SKY/WX    TMP DP  RH WIND       PRES   REMARKS
FARMINGTON     CLEAR     62  54  74 CALM      30.14R
6HR MIN TEMP:  62; 6HR MAX TEMP:  70;

SANTA FE       CLOUDY    61  57  87 W3        30.17S
6HR MIN TEMP:  61; 6HR MAX TEMP:  64;

TAOS           CLOUDY    55  46  71 N6        30.25R

$$
NMZ402-403-502-505>509-061300-
WESTCENTRAL MOUNTAINS/SOUTHWEST MOUNTAINS

CITY           SKY/WX    TMP DP  RH WIND       PRES   REMARKS
GALLUP         MOCLDY    58  56  93 CALM      30.26R
6HR MIN TEMP:  58; 6HR MAX TEMP:  62; 6HR PCP:  0.01;

SILVER CITY      N/A     64  59  82 NW15      30.18R

$$
NMZ407-409-411-412-061300-
SOUTHERN DESERTS

CITY           SKY/WX    TMP DP  RH WIND       PRES   REMARKS
DEMING         MOCLDY    70  59  68 SW6       30.10R
6HR MIN TEMP:  69; 6HR MAX TEMP:  72;

HOLLOMAN AFB   PTCLDY    71  60  69 VRB5      30.02R
ALAMOGORDO     PTCLDY    72  55  56 NW5       30.04R
T OR C         CLOUDY    70  56  61 NW8       30.09R
6HR MIN TEMP:  70; 6HR MAX TEMP:  76;


$$
NMZ519>523-061300-
CENTRAL VALLEYS/CENTRAL HIGHLANDS

CITY           SKY/WX    TMP DP  RH WIND       PRES   REMARKS
ALBUQUERQUE    MOCLDY    67  60  78 SW5       30.14R
6HR MIN TEMP:  67; 6HR MAX TEMP:  70; 6HR PCP: TRACE;

DOUBLE EAGLE   MOCLDY    61  57  88 VRB6      30.17R
CLINES CORNERS MOCLDY    59  54  83 NW14      30.19R
6HR MIN TEMP:  59; 6HR MAX TEMP:  63;

BELEN          FAIR      64  60  88 CALM      30.14R
6HR MIN TEMP:  64; 6HR MAX TEMP:  69;

SOCORRO        NOT AVBL

$$
NMZ524>526-539-540-061300-
SOUTHCENTRAL MOUNTAINS

CITY           SKY/WX    TMP DP  RH WIND       PRES   REMARKS
RUIDOSO        NOT AVBL

$$
NMZ527>531-061300-
NORTHEAST HIGHLANDS/NORTHEAST PLAINS

CITY           SKY/WX    TMP DP  RH WIND       PRES   REMARKS
LAS VEGAS      MOCLDY    59  51  75 NE9       30.18R
6HR MIN TEMP:  58; 6HR MAX TEMP:  65;

RATON          MOCLDY    64  55  72 N8        30.15R
6HR MIN TEMP:  63; 6HR MAX TEMP:  68;

CLAYTON        PTCLDY    68  58  70 N15       30.06R
6HR MIN TEMP:  67; 6HR MAX TEMP:  74;


$$
NMZ532>537-061300-
EASTCENTRAL PLAINS

CITY           SKY/WX    TMP DP  RH WIND       PRES   REMARKS
TUCUMCARI      CLEAR     68  58  70 W7        29.97R
6HR MIN TEMP:  67; 6HR MAX TEMP:  80;

CANNON AFB     CLEAR     65  63  91 S6        30.01R
6HR MIN TEMP:  65; 6HR MAX TEMP:  73;

CLOVIS AIRPORT CLEAR     64  61  88 S6          N/A

$$
NMZ028-029-538-061300-
SOUTHEAST PLAINS

CITY           SKY/WX    TMP DP  RH WIND       PRES   REMARKS
ROSWELL        PTCLDY    69  60  73 SW5       29.97R
6HR MIN TEMP:  68; 6HR MAX TEMP:  79;

ARTESIA        PTCLDY    73  63  68 S5        29.98R
CARLSBAD       CLEAR     73  62  68 CALM      29.95R
6HR MIN TEMP:  72; 6HR MAX TEMP:  84;

HOBBS          CLEAR     68  68 100 S7        30.01R


$$



USA.gov is the U.S. government's official web portal to all federal, state and local government web resources and services.